Regional Weather Roundup
Issued by NWS

Home | Current Version | Previous Version | Graphics & Text | Print | Product List | Glossary On
Versions: 1 2 3 4 5 6 7 8 9 10 11 12 13 14 15 16 17 18 19 20 21 22 23 24 25 26 27 28 29 30 31 32 33 34 35 36 37 38 39 40 41 42 43 44 45 46 47 48 49 50
000
ASUS44 KMEG 291500
RWRTN
TENNESSEE HOURLY STATE WEATHER ROUNDUP
NATIONAL WEATHER SERVICE MEMPHIS TN
1000 AM CDT TUE JUL 29 2014

TNZ002-004-019-021-049-052-054-088>092-291600-
WEST TENNESSEE

CITY           SKY/WX    TMP DP  RH WIND       PRES   REMARKS
MEMPHIS INTL   MOSUNNY   75  56  51 NE10      30.15R
NWS MEMPHIS      N/A     73 N/A N/A MISG        N/A
JACKSON        SUNNY     72  52  49 NE8       30.14R
DYERSBURG      SUNNY     72  52  49 E3        30.16R
UNION CITY     SUNNY     70  55  60 N5        30.14R
PARIS          SUNNY     68  52  56 N7        30.15R
LEXINGTON      SUNNY     70  52  52 N7        30.13R
SAVANNAH       SUNNY     72  55  56 NE8       30.14R
$$

TNZ008-025-027-028-033-062-065-066-291600-
NORTH MIDDLE TENNESSEE

CITY           SKY/WX    TMP DP  RH WIND       PRES   REMARKS
NASHVILLE      SUNNY     70  51  51 N12       30.11S
CLARKSVILLE    SUNNY     72  49  44 NE15      30.12S
COOKEVILLE     MOSUNNY   66  55  68 N7        30.09R
CROSSVILLE     PTSUNNY   67  54  63 NW9       30.09R
$$

TNZ061-075-076-078-094-096-097-291600-
SOUTH MIDDLE TENNESSEE

CITY           SKY/WX    TMP DP  RH WIND       PRES   REMARKS
FAYETTEVILLE   SUNNY     66  54  63 NW14G39   30.10R
TULLAHOMA      SUNNY     66  52  59 NW12      30.11R
WINCHESTER     PTSUNNY   66  57  72 NW5       30.10R
MCMINNVILLE    MOSUNNY   66  57  72 NE8       30.10R
COLUMBIA       SUNNY     70  52  52 N12       30.11R
SHELBYVILLE    SUNNY     68  54  60 N9        30.11R
$$

TNZ017-018-042-046-047-291600-
NORTHEAST TENNESSEE

CITY           SKY/WX    TMP DP  RH WIND       PRES   REMARKS
TRI CITIES     PTSUNNY   70  54  56 CALM      30.04S
ELIZABETHTON   MOSUNNY   70  55  60 SW7         N/A
$$

TNZ012-013-036-069-073-074-291600-
CENTRAL EAST TENNESSEE

CITY           SKY/WX    TMP DP  RH WIND       PRES   REMARKS
KNOXVILLE      PTSUNNY   70  59  68 NW3       30.04R
OAK RIDGE      MOSUNNY   72  57  59 VRB3      30.06R
GATLINBURG     MOSUNNY   68  59  73 CALM      30.04R
$$

TNZ083-085-099-291600-
SOUTHEAST TENNESSEE

CITY           SKY/WX    TMP DP  RH WIND       PRES   REMARKS
CHATTANOOGA    MOSUNNY   75  54  47 N10       30.06R
$$

SKY/WX REPORTED AS FAIR MEANS FEW OR NO CLOUDS BELOW
12 THOUSAND FEET.




USA.gov is the U.S. government's official web portal to all federal, state and local government web resources and services.